Terminal Aerodrome Forecast
Issued by NWS Raleigh/Durham, NC

Home | Current Version | Previous Version | Text Only | Print | Product List | Glossary On
Versions: 1 2 3 4 5 6 7 8 9 10 11 12 13 14 15 16 17 18 19 20 21 22 23 24 25 26 27 28 29 30 31 32 33 34 35 36 37 38 39 40 41 42 43 44 45 46 47 48 49 50
000
FTUS42 KRAH 261407 AAA
TAFFAY
TAF AMD
KFAY 261407Z 2614/2712 33013G21KT 2SM -RA BR BKN010 OVC016
      TEMPO 2614/2618 5SM SHRA BR OVC004
     FM261800 32012G20KT 6SM -RA BR OVC022
     FM262300 29005KT P6SM SCT020=

USA.gov is the U.S. government's official web portal to all federal, state and local government web resources and services.